Regional Weather Roundup
Issued by NWS Little Rock, AR

Home | Current Version | Previous Version | Graphics & Text | Print | Product List | Glossary On
Versions: 1 2 3 4 5 6 7 8 9 10 11 12 13 14 15 16 17 18 19 20 21 22 23 24 25 26 27 28 29 30 31 32 33 34 35 36 37 38 39 40 41 42 43 44 45 46 47 48 49
000
ASUS44 KLZK 211105
RWRLZK

WEATHER ROUNDUP FOR ARKANSAS
NATIONAL WEATHER SERVICE LITTLE ROCK AR
600 AM CDT TUE OCT 21 2014

NOTE: "FAIR" INDICATES FEW OR NO CLOUDS BELOW 12,000 FEET WITH NO
SIGNIFICANT WEATHER AND/OR OBSTRUCTIONS TO VISIBILITY.

ARZ001-003-010-029-211200-
NORTHWEST ARKANSAS

CITY           SKY/WX    TMP DP  RH WIND       PRES   REMARKS
FAYETTEVILLE   FOG       49  49 100 CALM      30.11R VSB 1/4
FORT SMITH     CLOUDY    59  57  93 CALM      30.07R
HARRISON       FOG       53  53 100 W5        30.10S VSB 1
BENTONVILLE    CLOUDY    48  46  93 CALM      30.11R VSB 1/4
ROGERS         CLOUDY    53  52  96 S3        30.12R VSB 1/4
SILOAM SPGS    CLOUDY    48  43  81 E5        30.11S VSB 1/4
HIGHFILL       FOG       50  50 100 CALM      30.10R VSB 1/4
SPRINGDALE     FOG       48  48 100 CALM      30.13  VSB 1/4
$$

ARZ004-005-016-211200-
NORTH CENTRAL ARKANSAS

CITY           SKY/WX    TMP DP  RH WIND       PRES   REMARKS
BATESVILLE     CLEAR     55  54  94 NW3       30.08R
FLIPPIN        CLOUDY    48  45  87 CALM      30.10R VSB 3/4
MTN HOME       CLEAR     52  51  97 CALM      30.08S FOG
$$

ARZ040-041-211200-
WEST CENTRAL ARKANSAS

CITY           SKY/WX    TMP DP  RH WIND       PRES   REMARKS
MENA           CLEAR     55  55 100 CALM      30.09R
MOUNT IDA      FOG       54  53  97 CALM      30.05S VSB 1/2
$$

ARZ009-017-025-026-028-211200-
NORTHEAST ARKANSAS

CITY           SKY/WX    TMP DP  RH WIND       PRES   REMARKS
CORNING        FAIR      48  48 100 CALM      30.07S FOG
JONESBORO      CLEAR     56  50  80 CALM      30.06R
NEWPORT        CLEAR     55  54  97 NW3       30.08R FOG
WALNUT RIDGE   CLEAR     52  46  82 N7        30.07R
BLYTHEVILLE    CLEAR     49  48  97 NW3       30.06R FOG
$$

ARZ022-023-033-042-044-211200-
CENTRAL ARKANSAS

CITY           SKY/WX    TMP DP  RH WIND       PRES   REMARKS
LITTLE ROCK    CLEAR     54  51  90 CALM      30.07R
N LITTLE ROCK    N/A     59  58  97 NW9       30.07R
JACKSONVILLE   CLEAR     50  49  96 W1        30.07R
SEARCY         CLEAR     54  54 100 N5        30.08R FOG
HOT SPRINGS    MOCLDY    55  54  96 CALM      30.07R FOG
RUSSELLVILLE   CLEAR     51  50  96 CALM      30.07S FOG
$$

ARZ036-211200-
EAST ARKANSAS

CITY           SKY/WX    TMP DP  RH WIND       PRES   REMARKS
WEST MEMPHIS   CLEAR     53  53 100 N3        30.04R FOG
$$

ARZ050-053-066-070-073-211200-
SOUTHWEST ARKANSAS

CITY           SKY/WX    TMP DP  RH WIND       PRES   REMARKS
ARKADELPHIA    PTSUNNY   58  58 100 CALM      30.07R
CAMDEN         CLOUDY    57  55  94 CALM      30.07R
TEXARKANA      CLEAR     55  54  96 CALM      30.07R
EL DORADO      CLOUDY    57  56  96 CALM      30.07R FOG
DE QUEEN       MOCLDY    54  54 100 E3        30.05R FOG
$$

ARZ056-057-069-211200-
SOUTHEAST ARKANSAS

CITY           SKY/WX    TMP DP  RH WIND       PRES   REMARKS
PINE BLUFF     FOG       55  54  96 CALM      30.06R VSB 3/4
STUTTGART      MOCLDY    54  50  87 CALM      30.07R VSB 1/2
MONTICELLO     PTCLDY    55  53  93 CALM      30.05R

$$





USA.gov is the U.S. government's official web portal to all federal, state and local government web resources and services.